NKS941 KDTW-KLAS

Flight info

Callsign NKS941
Flight time N/A
Altitude 32000
Route KAYLN3 SMUUV OBK IOW J60 HVE GGAPP CHOWW4
Aircraft A321/M-SDE3FGHIRWY/LB1

Departure

Time 2026-05-07 17:18
Airport Detroit Metropolitan Wayne County Airport (KDTW)

Arrival

Time N/A
Airport Harry Reid International Airport (KLAS)
Time Latitude Longitude Altitude Speed Heading
2026-05-07 16:53 42.21989 -83.34841 650 ft 0 kts 31°
2026-05-07 17:09 42.21981 -83.34848 651 ft 3 kts 33°
2026-05-07 17:09 42.21962 -83.34866 652 ft 3 kts 38°
2026-05-07 17:10 42.21945 -83.34885 653 ft 3 kts 44°
2026-05-07 17:10 42.21930 -83.34907 653 ft 3 kts 51°
2026-05-07 17:10 42.21916 -83.34932 651 ft 3 kts 61°
2026-05-07 17:10 42.21908 -83.34959 651 ft 3 kts 82°
2026-05-07 17:11 42.21907 -83.34980 649 ft 0 kts 108°
2026-05-07 17:12 42.21906 -83.34976 649 ft 2 kts 108°
2026-05-07 17:13 42.21890 -83.34942 652 ft 7 kts 136°
2026-05-07 17:13 42.21844 -83.34886 650 ft 10 kts 127°
2026-05-07 17:13 42.21832 -83.34792 650 ft 11 kts 91°
2026-05-07 17:13 42.21834 -83.34691 650 ft 11 kts 88°
2026-05-07 17:14 42.21837 -83.34588 650 ft 11 kts 88°
2026-05-07 17:14 42.21865 -83.34497 650 ft 11 kts 37°
2026-05-07 17:14 42.21934 -83.34444 650 ft 12 kts 28°
2026-05-07 17:14 42.22008 -83.34390 651 ft 12 kts 30°
2026-05-07 17:15 42.22084 -83.34332 649 ft 13 kts 29°
2026-05-07 17:15 42.22165 -83.34272 650 ft 14 kts 29°
2026-05-07 17:15 42.22248 -83.34210 649 ft 14 kts 29°
2026-05-07 17:15 42.22332 -83.34148 650 ft 14 kts 28°
2026-05-07 17:16 42.22418 -83.34086 650 ft 14 kts 28°
2026-05-07 17:16 42.22504 -83.34023 650 ft 14 kts 28°
2026-05-07 17:16 42.22572 -83.33949 652 ft 12 kts 77°
2026-05-07 17:16 42.22547 -83.33855 651 ft 11 kts 143°
2026-05-07 17:17 42.22485 -83.33876 652 ft 10 kts 209°
2026-05-07 17:17 42.22341 -83.33984 650 ft 52 kts 208°
2026-05-07 17:17 42.21816 -83.34365 652 ft 117 kts 209°
2026-05-07 17:17 42.20944 -83.35021 658 ft 167 kts 207°
2026-05-07 17:18 42.19897 -83.35825 1153 ft 174 kts 220°
2026-05-07 17:18 42.19106 -83.37060 1857 ft 175 kts 236°
2026-05-07 17:18 42.18345 -83.38413 2103 ft 194 kts 236°
2026-05-07 17:18 42.17496 -83.39963 2195 ft 219 kts 237°
2026-05-07 17:19 42.16554 -83.41701 2377 ft 241 kts 236°
2026-05-07 17:19 42.15535 -83.43518 3024 ft 246 kts 235°
2026-05-07 17:19 42.14492 -83.45355 3771 ft 247 kts 235°
2026-05-07 17:19 42.13442 -83.47197 4482 ft 249 kts 235°
2026-05-07 17:20 42.12384 -83.49053 5202 ft 251 kts 235°
2026-05-07 17:20 42.11316 -83.50930 5882 ft 254 kts 234°
2026-05-07 17:20 42.10240 -83.52827 6587 ft 256 kts 234°
2026-05-07 17:20 42.09150 -83.54753 6930 ft 259 kts 235°
2026-05-07 17:21 42.08058 -83.56679 7000 ft 259 kts 235°
2026-05-07 17:21 42.06993 -83.58591 7005 ft 258 kts 240°
2026-05-07 17:21 42.06315 -83.60784 7008 ft 254 kts 261°
2026-05-07 17:21 42.06302 -83.63140 7056 ft 255 kts 282°
2026-05-07 17:22 42.06968 -83.65348 7734 ft 258 kts 301°
2026-05-07 17:22 42.08010 -83.67333 8470 ft 261 kts 303°
2026-05-07 17:22 42.09078 -83.69320 9153 ft 264 kts 303°
2026-05-07 17:22 42.10160 -83.71327 9834 ft 266 kts 303°
2026-05-07 17:23 42.11263 -83.73368 10279 ft 276 kts 303°
2026-05-07 17:23 42.12385 -83.75453 10807 ft 280 kts 303°
2026-05-07 17:23 42.13535 -83.77586 11432 ft 282 kts 302°
2026-05-07 17:23 42.14694 -83.79731 12087 ft 284 kts 302°
2026-05-07 17:24 42.15858 -83.81891 12718 ft 286 kts 302°
2026-05-07 17:24 42.17031 -83.84068 13370 ft 288 kts 301°
2026-05-07 17:24 42.18207 -83.86257 13988 ft 290 kts 301°
2026-05-07 17:24 42.19392 -83.88466 14549 ft 291 kts 301°
2026-05-07 17:25 42.20583 -83.90688 15084 ft 293 kts 300°
2026-05-07 17:25 42.21781 -83.92925 15646 ft 295 kts 300°
2026-05-07 17:25 42.22987 -83.95178 16170 ft 297 kts 300°
2026-05-07 17:25 42.24202 -83.97450 16706 ft 300 kts 300°
2026-05-07 17:26 42.25408 -83.99705 17243 ft 302 kts 300°
2026-05-07 17:26 42.26641 -84.02017 17749 ft 304 kts 300°
2026-05-07 17:26 42.27884 -84.04348 18255 ft 307 kts 299°
2026-05-07 17:26 42.29136 -84.06694 18699 ft 309 kts 299°
2026-05-07 17:27 42.30397 -84.09053 19151 ft 311 kts 299°
2026-05-07 17:27 42.31665 -84.11429 19622 ft 312 kts 299°
2026-05-07 17:27 42.32919 -84.13782 20077 ft 313 kts 299°
2026-05-07 17:27 42.34212 -84.16209 20546 ft 314 kts 299°
2026-05-07 17:28 42.35472 -84.18580 21014 ft 316 kts 298°
2026-05-07 17:28 42.36753 -84.20994 21479 ft 317 kts 298°
2026-05-07 17:28 42.38040 -84.23419 21942 ft 318 kts 298°
2026-05-07 17:28 42.39336 -84.25858 22397 ft 320 kts 298°
2026-05-07 17:29 42.40633 -84.28306 22855 ft 321 kts 298°
2026-05-07 17:29 42.41811 -84.30854 23301 ft 317 kts 291°
2026-05-07 17:29 42.42645 -84.33597 23694 ft 314 kts 282°
2026-05-07 17:29 42.43135 -84.36469 24047 ft 312 kts 274°
2026-05-07 17:30 42.43290 -84.39350 24392 ft 311 kts 269°
2026-05-07 17:30 42.43364 -84.42279 24767 ft 312 kts 269°
2026-05-07 17:30 42.43441 -84.45217 25143 ft 312 kts 269°
2026-05-07 17:30 42.43518 -84.48158 25516 ft 313 kts 269°
2026-05-07 17:31 42.43597 -84.51101 25882 ft 314 kts 269°
2026-05-07 17:31 42.43675 -84.54055 26242 ft 315 kts 269°
2026-05-07 17:31 42.43750 -84.57024 26606 ft 315 kts 269°
2026-05-07 17:31 42.43824 -84.60013 26789 ft 322 kts 269°
2026-05-07 17:32 42.43898 -84.63031 26935 ft 328 kts 269°
2026-05-07 17:32 42.43973 -84.66146 27064 ft 334 kts 269°
2026-05-07 17:32 42.44047 -84.69320 27215 ft 340 kts 270°
2026-05-07 17:32 42.44097 -84.71449 27303 ft 344 kts 270°
2026-05-07 17:33 42.44202 -84.75825 27481 ft 352 kts 270°
2026-05-07 17:33 42.44280 -84.79163 27617 ft 357 kts 270°
2026-05-07 17:33 42.44361 -84.82548 27751 ft 362 kts 270°
2026-05-07 17:33 42.44444 -84.85984 27888 ft 367 kts 270°
2026-05-07 17:34 42.44522 -84.89458 28024 ft 372 kts 270°
2026-05-07 17:34 42.44597 -84.92940 28176 ft 376 kts 270°
2026-05-07 17:34 42.44675 -84.96492 28405 ft 379 kts 270°
2026-05-07 17:34 42.44755 -85.00056 28674 ft 380 kts 270°
2026-05-07 17:35 42.44837 -85.03644 28965 ft 381 kts 270°
2026-05-07 17:35 42.44916 -85.07237 29227 ft 384 kts 270°
2026-05-07 17:35 42.44990 -85.10859 29423 ft 386 kts 270°
2026-05-07 17:35 42.45062 -85.14495 29799 ft 385 kts 270°
2026-05-07 17:36 42.45135 -85.18120 30175 ft 384 kts 270°
2026-05-07 17:36 42.45207 -85.21676 30475 ft 383 kts 270°
2026-05-07 17:36 42.45278 -85.25274 30747 ft 382 kts 270°
2026-05-07 17:36 42.45346 -85.28869 31005 ft 382 kts 270°
2026-05-07 17:37 42.45415 -85.32467 31257 ft 382 kts 270°
2026-05-07 17:37 42.45483 -85.36066 31504 ft 382 kts 270°
2026-05-07 17:37 42.45548 -85.39668 31749 ft 382 kts 270°
2026-05-07 17:37 42.45611 -85.43266 31989 ft 382 kts 270°
2026-05-07 17:38 42.45671 -85.46864 32202 ft 383 kts 270°
2026-05-07 17:38 42.45731 -85.50423 32420 ft 383 kts 270°
2026-05-07 17:38 42.45792 -85.54035 32650 ft 383 kts 270°
2026-05-07 17:38 42.45853 -85.57635 32877 ft 383 kts 270°
2026-05-07 17:39 42.45912 -85.61260 33017 ft 384 kts 270°
2026-05-07 17:39 42.45970 -85.64864 33041 ft 382 kts 270°
2026-05-07 17:39 42.46085 -85.72049 33040 ft 382 kts 270°
2026-05-07 17:40 42.46190 -85.79234 33042 ft 381 kts 270°
2026-05-07 17:40 42.46290 -85.86368 33041 ft 381 kts 270°
2026-05-07 17:41 42.46395 -85.93547 33047 ft 382 kts 270°
2026-05-07 17:41 42.46490 -86.00737 33053 ft 382 kts 270°
2026-05-07 17:42 42.46577 -86.07941 33057 ft 382 kts 270°
2026-05-07 17:42 42.46346 -86.15067 33060 ft 382 kts 261°
2026-05-07 17:43 42.45443 -86.22160 33057 ft 383 kts 262°
2026-05-07 17:43 42.44532 -86.29344 33038 ft 392 kts 261°
2026-05-07 17:44 42.43589 -86.36706 33039 ft 400 kts 261°
2026-05-07 17:44 42.42643 -86.44090 33040 ft 402 kts 261°
2026-05-07 17:45 42.41683 -86.51537 33043 ft 402 kts 261°
2026-05-07 17:45 42.40715 -86.58992 33050 ft 403 kts 262°
2026-05-07 17:46 42.39739 -86.66492 33052 ft 406 kts 261°
2026-05-07 17:46 42.38761 -86.73965 33059 ft 407 kts 261°
2026-05-07 17:47 42.37769 -86.81492 33056 ft 407 kts 261°
2026-05-07 17:47 42.36767 -86.89034 33063 ft 408 kts 261°
2026-05-07 17:48 42.35760 -86.96543 33026 ft 402 kts 262°
2026-05-07 17:48 42.34775 -87.03907 33029 ft 400 kts 262°
2026-05-07 17:49 42.33783 -87.11296 33024 ft 400 kts 262°
2026-05-07 17:49 42.32784 -87.18684 33024 ft 399 kts 262°
2026-05-07 17:50 42.31784 -87.26070 33019 ft 399 kts 262°
2026-05-07 17:50 42.30772 -87.33454 33032 ft 400 kts 262°
2026-05-07 17:51 42.29758 -87.40796 33027 ft 401 kts 262°
2026-05-07 17:51 42.28738 -87.48209 33024 ft 401 kts 262°
2026-05-07 17:52 42.27717 -87.55622 33021 ft 402 kts 262°
2026-05-07 17:52 42.26676 -87.63040 33018 ft 402 kts 262°
2026-05-07 17:53 42.25641 -87.70411 33019 ft 402 kts 262°
2026-05-07 17:53 42.24600 -87.77827 33012 ft 402 kts 262°
2026-05-07 17:54 42.23555 -87.85237 33018 ft 402 kts 262°
2026-05-07 17:54 42.22496 -87.92642 33019 ft 402 kts 262°
2026-05-07 17:55 42.21360 -88.00021 33024 ft 402 kts 261°
2026-05-07 17:55 42.20067 -88.07312 33018 ft 402 kts 259°
2026-05-07 17:56 42.18731 -88.14640 33018 ft 402 kts 260°
2026-05-07 17:56 42.17430 -88.21955 33006 ft 400 kts 260°
2026-05-07 17:57 42.16368 -88.28004 33025 ft 398 kts 261°
2026-05-07 17:57 42.14881 -88.36429 33019 ft 397 kts 260°
2026-05-07 17:58 42.13591 -88.43662 33022 ft 397 kts 260°
2026-05-07 17:58 42.12294 -88.50867 33001 ft 395 kts 261°
2026-05-07 17:59 42.11011 -88.58010 33009 ft 394 kts 261°
2026-05-07 17:59 42.09719 -88.65178 33013 ft 394 kts 261°
2026-05-07 18:00 42.08420 -88.72330 33009 ft 393 kts 261°
2026-05-07 18:00 42.07123 -88.79473 33013 ft 393 kts 261°
2026-05-07 18:01 42.06046 -88.85404 33005 ft 392 kts 261°
2026-05-07 18:01 42.04532 -88.93689 32990 ft 392 kts 261°
2026-05-07 18:02 42.02564 -89.04375 33000 ft 392 kts 261°
2026-05-07 18:03 42.01471 -89.10287 33004 ft 392 kts 261°
2026-05-07 18:03 42.00150 -89.17407 33007 ft 392 kts 261°
2026-05-07 18:04 41.98614 -89.25676 32989 ft 392 kts 261°
2026-05-07 18:04 41.97292 -89.32727 32987 ft 388 kts 261°
2026-05-07 18:05 41.96197 -89.38562 33000 ft 387 kts 261°
2026-05-07 18:05 41.94879 -89.45557 32996 ft 386 kts 261°
2026-05-07 18:06 41.93349 -89.53672 33002 ft 385 kts 261°
2026-05-07 18:06 41.92242 -89.59510 32999 ft 385 kts 261°
2026-05-07 18:07 41.90913 -89.66481 32996 ft 385 kts 260°
2026-05-07 18:07 41.89592 -89.73400 32998 ft 385 kts 260°
2026-05-07 18:08 41.88261 -89.80358 32993 ft 385 kts 260°
2026-05-07 18:08 41.86922 -89.87318 32996 ft 385 kts 260°
2026-05-07 18:09 41.85581 -89.94270 32995 ft 385 kts 260°
2026-05-07 18:09 41.84240 -90.01170 32967 ft 385 kts 260°
2026-05-07 18:10 41.82888 -90.08120 32977 ft 385 kts 261°
2026-05-07 18:10 41.81535 -90.15069 32978 ft 385 kts 260°
2026-05-07 18:11 41.80175 -90.22019 32979 ft 385 kts 260°
2026-05-07 18:11 41.78821 -90.28912 32977 ft 385 kts 260°
2026-05-07 18:12 41.77455 -90.35852 32912 ft 385 kts 260°
2026-05-07 18:12 41.76095 -90.42727 32962 ft 379 kts 260°
2026-05-07 18:13 41.74740 -90.49526 32965 ft 378 kts 260°
2026-05-07 18:13 41.73388 -90.56322 32980 ft 378 kts 260°
2026-05-07 18:14 41.72043 -90.63067 32979 ft 378 kts 260°
2026-05-07 18:14 41.70683 -90.69854 32979 ft 378 kts 260°
2026-05-07 18:15 41.69317 -90.76640 32964 ft 378 kts 260°
2026-05-07 18:15 41.67944 -90.83438 32969 ft 379 kts 260°
2026-05-07 18:16 41.66579 -90.90205 32973 ft 380 kts 260°
2026-05-07 18:16 41.65197 -90.97026 32986 ft 380 kts 260°
2026-05-07 18:17 41.63800 -91.03848 32996 ft 380 kts 260°
2026-05-07 18:17 41.62399 -91.10669 32999 ft 381 kts 260°
2026-05-07 18:18 41.61005 -91.17445 32962 ft 381 kts 260°
2026-05-07 18:18 41.59593 -91.24277 32976 ft 382 kts 260°
2026-05-07 18:19 41.58188 -91.31130 32984 ft 383 kts 260°
2026-05-07 18:19 41.56780 -91.37986 32985 ft 383 kts 259°
2026-05-07 18:20 41.55358 -91.44820 32969 ft 386 kts 259°
2026-05-07 18:20 41.53906 -91.51746 32975 ft 389 kts 259°
2026-05-07 18:21 41.52440 -91.58720 32962 ft 391 kts 259°
2026-05-07 18:21 41.51471 -91.65804 32975 ft 388 kts 266°
2026-05-07 18:22 41.50818 -91.72905 32986 ft 389 kts 266°
2026-05-07 18:22 41.50148 -91.80068 33001 ft 389 kts 266°
2026-05-07 18:23 41.49468 -91.87227 33008 ft 389 kts 266°
2026-05-07 18:23 41.48783 -91.94395 32980 ft 390 kts 266°
2026-05-07 18:24 41.48093 -92.01587 32982 ft 391 kts 266°
2026-05-07 18:24 41.47401 -92.08745 32987 ft 392 kts 266°
2026-05-07 18:25 41.46691 -92.15962 32985 ft 393 kts 266°
2026-05-07 18:25 41.45981 -92.23190 32993 ft 393 kts 266°
2026-05-07 18:26 41.45270 -92.30421 32970 ft 394 kts 266°
2026-05-07 18:26 41.44553 -92.37617 32973 ft 395 kts 266°
2026-05-07 18:27 41.43825 -92.44885 32973 ft 396 kts 266°
2026-05-07 18:27 41.43092 -92.52172 32982 ft 397 kts 266°
2026-05-07 18:28 41.42359 -92.59462 32992 ft 397 kts 266°
2026-05-07 18:28 41.41616 -92.66756 32997 ft 398 kts 266°
2026-05-07 18:29 41.40868 -92.74018 32963 ft 399 kts 265°
2026-05-07 18:29 41.40106 -92.81345 32960 ft 400 kts 265°
2026-05-07 18:30 41.39339 -92.88695 32966 ft 401 kts 265°
2026-05-07 18:30 41.38571 -92.96051 32976 ft 401 kts 265°
2026-05-07 18:31 41.37802 -93.03362 32986 ft 402 kts 265°
2026-05-07 18:31 41.37023 -93.10728 32946 ft 403 kts 265°
2026-05-07 18:32 41.36237 -93.18122 32945 ft 404 kts 265°
2026-05-07 18:32 41.35444 -93.25524 32957 ft 404 kts 265°
2026-05-07 18:33 41.34647 -93.32890 32967 ft 405 kts 265°
2026-05-07 18:33 41.33839 -93.40307 32977 ft 405 kts 265°
2026-05-07 18:34 41.33027 -93.47728 32986 ft 405 kts 265°
2026-05-07 18:34 41.32205 -93.55148 32988 ft 405 kts 265°
2026-05-07 18:35 41.31393 -93.62520 32988 ft 405 kts 265°
2026-05-07 18:35 41.30572 -93.69939 32988 ft 406 kts 265°
2026-05-07 18:36 41.29741 -93.77361 32990 ft 406 kts 265°
2026-05-07 18:36 41.28904 -93.84781 32951 ft 407 kts 265°
2026-05-07 18:37 41.28068 -93.92189 32922 ft 408 kts 265°
2026-05-07 18:37 41.27215 -93.99655 32925 ft 409 kts 264°
2026-05-07 18:38 41.26349 -94.07147 32936 ft 411 kts 264°
2026-05-07 18:38 41.25483 -94.14658 32948 ft 411 kts 264°
2026-05-07 18:39 41.24617 -94.22177 32925 ft 412 kts 264°
2026-05-07 18:39 41.23736 -94.29717 32928 ft 414 kts 264°
2026-05-07 18:40 41.22854 -94.37219 32939 ft 414 kts 264°
2026-05-07 18:40 41.21958 -94.44787 32946 ft 415 kts 264°
2026-05-07 18:41 41.21059 -94.52363 32954 ft 415 kts 264°
2026-05-07 18:41 41.20151 -94.59939 32935 ft 416 kts 264°
2026-05-07 18:42 41.19239 -94.67479 32935 ft 417 kts 264°
2026-05-07 18:42 41.18322 -94.75092 32928 ft 418 kts 264°
2026-05-07 18:43 41.17400 -94.82710 32933 ft 418 kts 264°
2026-05-07 18:43 41.16473 -94.90332 32934 ft 419 kts 264°
2026-05-07 18:44 41.15542 -94.97910 32913 ft 419 kts 264°
2026-05-07 18:44 41.14594 -95.05545 32923 ft 420 kts 264°
2026-05-07 18:45 41.13637 -95.13188 32929 ft 420 kts 264°
2026-05-07 18:45 41.12683 -95.20842 32934 ft 421 kts 264°
2026-05-07 18:46 41.11731 -95.28447 32938 ft 421 kts 264°
2026-05-07 18:46 41.10761 -95.36100 32916 ft 421 kts 263°
2026-05-07 18:47 41.09791 -95.43760 32923 ft 421 kts 263°
2026-05-07 18:47 41.08807 -95.51418 32932 ft 421 kts 263°
2026-05-07 18:48 41.07825 -95.59025 32939 ft 422 kts 263°
2026-05-07 18:48 41.06840 -95.66685 32926 ft 422 kts 263°
2026-05-07 18:49 41.05851 -95.74347 32914 ft 422 kts 263°
2026-05-07 18:49 41.04848 -95.81998 32915 ft 422 kts 263°
2026-05-07 18:50 41.03846 -95.89599 32926 ft 421 kts 263°
2026-05-07 18:50 41.02836 -95.97237 32923 ft 421 kts 263°
2026-05-07 18:51 41.01824 -96.04879 32922 ft 421 kts 263°
2026-05-07 18:51 41.00809 -96.12520 32916 ft 421 kts 263°
2026-05-07 18:52 40.99785 -96.20147 32926 ft 420 kts 263°
2026-05-07 18:52 40.98762 -96.27711 32929 ft 420 kts 263°
2026-05-07 18:53 40.97734 -96.35315 32932 ft 420 kts 263°
2026-05-07 18:53 40.96704 -96.42917 32930 ft 420 kts 263°
2026-05-07 18:54 40.95667 -96.50505 32919 ft 419 kts 263°
2026-05-07 18:54 40.94629 -96.58040 32931 ft 419 kts 263°
2026-05-07 18:55 40.93579 -96.65583 32903 ft 413 kts 263°
2026-05-07 18:55 40.92550 -96.73001 32937 ft 409 kts 263°
2026-05-07 18:56 40.91683 -96.80428 32916 ft 409 kts 265°
2026-05-07 18:56 40.91036 -96.87886 32919 ft 409 kts 266°
2026-05-07 18:57 40.90393 -96.95302 32914 ft 409 kts 265°
2026-05-07 18:57 40.89689 -97.02762 32920 ft 409 kts 265°
2026-05-07 18:58 40.88957 -97.10235 32922 ft 410 kts 265°
2026-05-07 18:58 40.88223 -97.17703 32928 ft 410 kts 265°
2026-05-07 18:59 40.87503 -97.25127 32931 ft 410 kts 264°
2026-05-07 18:59 40.86809 -97.32606 32916 ft 411 kts 263°
2026-05-07 19:00 40.85948 -97.40043 32838 ft 408 kts 275°
2026-05-07 19:00 40.85993 -97.47473 31591 ft 412 kts 256°